Location: Hochstatterhof
(48.7256°N, 10.3487°E)
Time: 03:08:28
(UTC+00:00)

NOSS 2-2 (E) - Pass Details

Date: 26 September 2023
Orbit: 408 x 1757 km, 63.3° (Epoch: 29 November)

Event Time Altitude Azimuth Distance (km) Brightness Sun altitude
Exits shadow 02:58:42 37° 297° (WNW) 1,155 4.6 -21.9°
Maximum altitude 03:00:37 62° 232° (SW) 915 4.0 -21.6°
Drops below altitude 10° 03:07:10 10° 154° (SSE) 2,904 7.0 -20.6°
Sets 03:10:21 0° 151° (SSE) 4,093 7.8 -20.1°
